Wind_Speed
17 17 16 16 15 15 15 14 13 13 13 12 12 11 10 10 10 10 10 9 9 8 7 7 6 6 6 5 5 5 4 4 3 2 2 2 2 2 2 2 2 2 2
19 18 18 17 17 17 16 16 15 15 15 14 13 12 12 11 11 11 11 11 10 10 9 9 8 7 7 7 6 6 6 5 5 4 4 4 4 3 3 3 3 3 2
21 20 19 19 18 18 18 17 17 17 16 15 15 14 13 13 12 12 12 12 12 11 11 10 10 9 9 8 8 8 7 7 6 6 6 5 5 5 5 4 4 3 3
22 22 21 21 20 20 19 19 19 18 18 17 16 15 15 14 14 13 13 13 13 12 12 11 11 11 10 10 10 9 9 8 8 8 7 7 7 6 6 6 5 5 4
25 24 23 23 22 21 21 20 20 19 19 18 18 17 17 16 16 15 15 14 14 13 13 13 12 12 12 11 11 11 10 10 10 9 9 8 8 7 7 7 7 6 6
26 26 25 24 24 23 23 22 21 21 20 20 19 19 18 18 17 17 16 15 15 14 14 14 13 13 13 12 12 12 12 11 11 11 11 10 9 9 9 8 8 8 8
29 27 26 26 25 25 25 24 23 23 22 21 21 20 20 20 19 18 18 17 17 16 16 15 15 15 14 14 13 12 12 12 12 12 12 11 11 11 10 10 9 9 9
30 29 28 27 27 27 26 26 25 24 24 23 22 22 22 21 21 20 19 19 19 18 18 17 17 16 16 15 14 14 14 13 13 12 12 12 12 12 12 11 10 10 10
32 31 30 30 29 29 28 28 27 27 26 25 24 23 23 23 22 21 21 20 20 20 19 19 18 18 17 16 16 15 15 14 14 14 13 13 13 13 13 12 12 11 11
34 33 32 32 32 31 30 30 29 28 28 27 26 25 25 24 24 23 22 21 21 21 21 20 19 18 18 18 17 17 16 15 14 14 14 14 14 14 14 14 13 13 13
35 35 35 34 34 33 32 31 31 30 30 29 28 27 27 26 26 25 24 23 23 22 22 22 21 21 19 19 18 18 17 16 15 15 14 14 14 15 15 14 14 14 14
37 37 37 36 35 35 34 33 33 32 31 31 30 29 29 28 28 27 26 26 25 24 23 22 22 22 21 20 19 19 18 18 17 16 16 16 15 15 16 15 15 15 15
40 39 39 38 37 36 35 35 35 34 33 33 32 32 31 30 30 29 28 27 27 26 25 24 23 23 22 22 21 20 19 19 19 18 18 17 17 17 17 17 17 17 16
42 41 41 40 39 38 37 37 37 36 35 35 34 34 33 32 32 31 30 29 29 28 27 26 25 24 24 24 23 22 21 21 20 20 20 19 18 18 18 18 18 18 18
43 43 42 41 41 40 39 39 38 38 37 37 36 35 35 34 33 32 31 30 30 30 29 29 28 27 26 25 25 24 24 23 22 23 22 21 20 20 19 19 18 18 18
44 43 43 42 42 41 41 40 40 40 40 39 38 37 37 35 35 34 33 34 33 32 31 31 30 29 29 28 27 26 26 25 24 24 24 23 23 22 21 21 20 20 19
45 45 44 43 43 43 42 42 42 42 41 41 40 39 38 38 37 37 36 36 36 35 34 33 33 32 31 31 30 29 28 27 26 26 25 25 25 24 24 23 22 22 21
45 45 45 45 45 44 44 43 43 43 42 42 41 41 40 39 39 38 38 38 37 37 35 35 35 34 33 33 31 31 31 30 29 28 27 27 27 27 26 25 25 24 24
45 45 45 45 45 45 45 44 45 44 43 43 43 43 42 42 41 41 40 39 39 38 38 37 36 36 36 35 34 33 33 32 31 31 30 30 29 29 28 28 27 27 26
45 45 45 45 45 46 46 45 46 46 44 44 44 43 43 43 43 43 42 41 41 41 41 39 39 38 38 38 37 36 35 35 34 33 32 32 32 31 31 30 29 28 28
46 46 46 45 46 46 46 47 46 46 46 45 45 45 44 44 44 44 43 43 42 42 41 41 40 40 40 40 39 38 38 37 36 35 35 35 34 33 33 33 32 31 30
48 48 47 47 47 47 47 48 48 48 48 48 47 47 46 45 44 44 45 45 44 43 42 42 42 42 42 41 41 40 40 39 38 37 37 37 36 35 35 35 35 33 32
48 49 49 49 48 48 48 49 49 49 49 49 48 47 48 47 46 45 46 46 46 45 44 43 44 44 44 43 43 43 42 41 40 39 39 39 38 37 37 37 37 36 35
48 49 50 50 50 49 49 49 50 49 49 49 49 49 49 49 48 47 48 47 46 46 45 45 45 46 46 45 45 45 44 43 42 41 41 40 39 39 38 38 38 38 37
49 50 50 50 50 50 50 49 50 51 51 52 52 51 50 49 48 49 49 48 48 48 47 47 47 47 47 47 47 47 46 45 45 44 43 42 41 41 40 40 40 40 39
49 49 50 51 51 51 51 51 51 51 52 52 52 52 51 52 51 51 50 49 50 50 49 48 49 48 47 48 48 48 48 47 47 46 46 45 44 44 43 42 42 41 41
Wind_Direction
245 245 244 244 244 243 243 244 244 246 247 248 249 249 249 248 247 245 242 240 240 239 237 234 232 231 229 228 228 228 227 229 238 246 259 278 293 300 305 304 309 311 314
248 246 245 246 245 245 245 247 248 249 249 250 250 249 249 250 249 247 246 243 242 240 239 238 236 235 235 234 232 234 235 238 245 250 257 268 275 280 284 284 288 292 292
249 248 248 248 247 247 247 247 249 251 251 251 251 249 248 248 249 248 249 244 242 241 240 240 239 237 236 237 237 238 239 242 246 251 257 266 272 274 275 275 275 274 275
249 249 249 248 248 248 248 249 249 250 252 251 250 248 246 247 247 248 249 247 243 242 241 239 240 239 239 241 243 243 244 247 251 253 258 265 268 268 268 270 269 267 265
248 249 248 248 249 249 249 250 250 250 251 251 250 249 247 246 246 246 248 248 244 242 243 242 240 242 243 244 246 246 247 249 251 254 258 261 263 262 262 264 266 266 264
249 249 248 247 248 249 249 249 250 251 251 251 250 248 247 246 246 245 246 246 244 243 242 242 242 243 245 246 247 247 247 249 252 255 257 258 257 258 259 261 265 266 264
249 249 249 247 247 247 248 248 249 251 251 250 248 247 247 247 245 244 245 244 244 243 242 242 242 244 247 249 249 249 248 251 253 255 256 256 256 257 258 261 262 263 262
250 249 249 248 247 246 247 248 248 249 249 248 247 247 247 246 245 244 244 244 244 244 244 244 243 245 246 249 250 250 250 253 254 254 255 255 255 256 259 261 260 261 261
251 250 250 249 248 247 247 248 248 247 247 247 247 247 246 245 245 244 244 244 244 244 244 246 246 244 245 248 249 251 252 252 254 255 254 254 255 256 258 258 258 259 260
251 251 251 250 249 248 248 247 248 247 247 247 246 246 246 245 245 244 244 244 244 244 244 246 247 245 245 246 248 250 250 251 252 253 252 253 255 257 258 257 257 258 261
251 251 251 251 250 249 248 248 248 247 247 247 246 245 245 244 245 245 245 244 245 245 245 245 246 246 247 246 246 248 250 251 252 252 253 254 255 256 258 257 257 258 260
251 251 251 251 251 250 248 248 248 247 247 247 246 246 245 244 245 245 245 245 244 245 245 246 247 247 248 247 248 249 250 252 251 252 254 256 256 257 258 258 258 258 259
251 251 251 250 250 250 250 248 247 247 247 247 246 247 246 245 244 245 245 245 245 246 246 247 247 248 248 248 249 250 252 252 252 252 252 254 257 259 260 259 258 259 259
251 251 250 250 250 250 249 249 247 246 246 247 246 246 246 246 246 245 244 246 246 246 248 248 248 247 249 249 251 252 252 253 253 253 252 253 255 257 258 258 259 260 261
250 250 249 249 249 249 248 248 248 247 246 246 247 246 246 246 245 244 244 246 247 247 248 249 249 249 250 251 252 253 254 254 254 254 252 252 254 256 257 257 257 259 261
248 248 249 249 248 248 248 248 247 247 246 246 246 246 246 245 245 245 246 246 248 248 249 250 250 251 252 252 253 252 253 254 255 255 253 252 253 256 258 258 258 260 261
248 248 248 248 248 247 247 247 246 246 246 246 246 246 246 246 246 246 247 247 248 249 250 251 250 251 253 253 254 254 254 254 254 255 254 254 255 257 258 258 260 261 263
248 248 248 248 248 248 247 247 247 247 246 245 246 246 246 246 247 247 248 248 248 249 249 251 251 252 252 253 254 254 253 254 254 254 254 255 257 259 258 258 261 262 263
249 248 248 248 248 248 247 247 246 247 246 245 245 246 246 247 247 247 248 248 248 249 250 250 251 251 252 253 253 253 253 254 254 254 254 255 257 259 259 259 260 262 263
249 249 248 248 247 247 247 246 246 247 247 246 245 245 247 247 248 248 248 249 249 251 251 250 250 252 252 253 253 254 253 253 255 255 255 256 257 258 259 259 260 261 263
248 248 248 248 248 248 248 247 247 247 247 246 244 245 247 247 247 248 248 249 250 251 251 251 251 251 252 253 253 253 253 254 254 255 256 257 258 258 259 259 259 260 261
249 248 248 248 249 249 248 248 247 247 246 245 243 243 245 246 247 248 248 249 249 250 251 252 251 251 252 253 253 253 253 254 254 255 256 256 256 257 258 259 259 260 261
249 248 247 248 248 248 248 248 248 247 246 245 244 244 244 245 247 249 249 249 249 250 251 251 251 251 251 252 253 253 253 253 254 255 256 256 256 258 259 259 259 260 261
249 248 248 247 247 248 248 248 248 248 247 246 246 245 245 246 248 250 251 250 249 250 250 252 252 251 251 251 252 252 254 254 254 254 255 256 257 257 257 258 259 259 260
249 249 248 248 247 247 248 249 249 248 247 246 246 247 247 247 248 249 250 250 250 250 250 252 252 252 251 251 252 253 254 254 254 254 255 256 257 257 257 258 259 259 260
249 248 248 248 248 247 247 249 250 248 247 246 246 248 248 248 248 248 250 252 251 251 251 252 253 253 252 252 252 252 253 254 254 254 256 256 257 258 258 258 258 259 260
Height
5831 5832 5833 5835 5836 5836 5837 5838 5839 5840 5841 5842 5842 5843 5844 5844 5845 5846 5847 5848 5849 5850 5850 5851 5852 5852 5852 5853 5854 5854 5855 5855 5856 5856 5857 5857 5857 5858 5858 5858 5858 5858 5858
5828 5830 5831 5832 5833 5834 5835 5836 5837 5838 5839 5840 5840 5841 5842 5843 5844 5845 5845 5846 5847 5848 5849 5850 5850 5851 5851 5852 5853 5853 5854 5855 5855 5855 5856 5856 5857 5857 5857 5858 5858 5858 5858
5825 5826 5828 5829 5830 5831 5832 5833 5834 5835 5836 5837 5838 5839 5840 5841 5842 5843 5844 5844 5845 5846 5847 5848 5849 5850 5850 5851 5851 5852 5853 5854 5854 5855 5855 5856 5856 5856 5856 5857 5857 5857 5857
5821 5823 5824 5826 5827 5828 5829 5830 5831 5832 5834 5835 5836 5837 5837 5838 5840 5841 5841 5842 5843 5844 5845 5846 5847 5848 5848 5849 5850 5851 5851 5852 5853 5853 5854 5854 5855 5855 5855 5856 5856 5856 5856
5817 5818 5820 5822 5823 5825 5826 5827 5828 5829 5830 5831 5833 5834 5835 5836 5837 5838 5839 5840 5841 5842 5843 5844 5845 5846 5847 5847 5848 5849 5850 5851 5851 5852 5852 5853 5853 5854 5854 5855 5855 5855 5855
5812 5814 5816 5817 5819 5820 5822 5823 5824 5826 5827 5828 5829 5831 5832 5833 5834 5835 5836 5837 5839 5840 5841 5842 5843 5844 5845 5845 5846 5847 5848 5849 5850 5850 5851 5851 5852 5852 5853 5853 5854 5854 5854
5808 5809 5811 5813 5814 5816 5817 5819 5820 5822 5823 5824 5825 5827 5828 5830 5831 5832 5833 5834 5836 5837 5838 5839 5840 5841 5842 5843 5844 5844 5845 5846 5847 5848 5849 5849 5850 5850 5851 5851 5852 5852 5853
5802 5804 5806 5808 5809 5811 5812 5814 5816 5817 5818 5820 5821 5823 5824 5826 5827 5828 5829 5831 5832 5834 5835 5836 5837 5838 5839 5840 5841 5842 5843 5844 5845 5846 5847 5847 5848 5848 5849 5849 5850 5851 5851
5796 5798 5800 5802 5804 5806 5807 5809 5811 5812 5814 5815 5817 5819 5820 5821 5823 5824 5826 5827 5829 5830 5832 5833 5834 5835 5836 5838 5839 5839 5840 5841 5842 5843 5844 5845 5845 5846 5847 5847 5848 5848 5849
5789 5792 5794 5796 5798 5800 5802 5803 5805 5807 5809 5810 5812 5814 5815 5817 5819 5820 5822 5823 5825 5826 5828 5829 5831 5832 5833 5834 5835 5837 5838 5839 5840 5841 5842 5842 5843 5843 5844 5845 5845 5846 5846
5782 5784 5787 5789 5791 5793 5795 5797 5799 5801 5803 5805 5807 5809 5810 5812 5814 5816 5817 5819 5821 5822 5824 5825 5827 5828 5830 5831 5832 5833 5834 5835 5837 5838 5838 5839 5840 5841 5841 5842 5842 5843 5844
5774 5776 5779 5781 5784 5786 5788 5791 5793 5795 5797 5799 5801 5803 5805 5807 5809 5811 5812 5814 5816 5818 5820 5821 5823 5824 5826 5827 5828 5830 5831 5832 5833 5834 5835 5836 5837 5837 5838 5839 5839 5840 5841
5765 5768 5770 5773 5775 5778 5780 5783 5786 5788 5790 5793 5795 5797 5799 5801 5803 5805 5807 5809 5811 5813 5815 5817 5818 5820 5821 5823 5825 5826 5827 5829 5830 5831 5832 5833 5834 5834 5835 5835 5836 5837 5838
5756 5759 5761 5763 5766 5769 5772 5775 5778 5781 5783 5785 5788 5790 5793 5795 5797 5799 5801 5803 5806 5808 5810 5812 5814 5815 5817 5818 5820 5822 5823 5824 5826 5827 5828 5829 5830 5830 5831 5832 5832 5833 5834
5746 5749 5751 5754 5757 5760 5763 5766 5770 5773 5775 5778 5780 5783 5786 5788 5791 5793 5795 5798 5800 5802 5804 5806 5808 5810 5812 5814 5815 5817 5818 5820 5821 5822 5823 5824 5825 5826 5827 5828 5828 5829 5830
5736 5739 5742 5745 5747 5750 5754 5757 5760 5764 5767 5769 5772 5775 5778 5781 5784 5786 5789 5791 5793 5796 5798 5800 5802 5804 5806 5808 5810 5811 5813 5815 5816 5817 5818 5819 5820 5822 5822 5823 5824 5825 5826
5725 5728 5731 5735 5737 5741 5744 5747 5750 5754 5757 5760 5764 5767 5770 5773 5776 5779 5781 5784 5786 5789 5791 5793 5796 5798 5800 5802 5804 5806 5807 5809 5810 5811 5813 5814 5815 5817 5817 5818 5819 5820 5821
5714 5718 5721 5724 5728 5731 5734 5737 5740 5744 5748 5751 5755 5758 5761 5765 5768 5771 5773 5776 5778 5781 5784 5786 5788 5791 5793 5795 5797 5799 5801 5803 5804 5805 5807 5808 5810 5811 5812 5813 5814 5815 5816
5704 5707 5711 5714 5717 5720 5724 5727 5730 5734 5738 5741 5745 5749 5752 5755 5759 5762 5765 5767 5770 5773 5775 5778 5780 5783 5785 5787 5790 5792 5794 5796 5797 5799 5800 5802 5803 5804 5806 5807 5808 5809 5810
5694 5697 5700 5703 5706 5710 5713 5716 5720 5724 5728 5732 5735 5739 5742 5746 5749 5752 5755 5758 5761 5764 5766 5769 5772 5775 5777 5779 5782 5784 5786 5788 5790 5792 5793 5795 5796 5798 5799 5800 5802 5803 5804
5682 5686 5689 5693 5696 5699 5702 5706 5709 5713 5717 5721 5725 5728 5732 5736 5739 5742 5746 5749 5752 5755 5757 5760 5763 5766 5768 5771 5773 5775 5778 5780 5782 5784 5786 5787 5789 5790 5792 5793 5795 5796 5797
5671 5674 5678 5681 5684 5688 5691 5695 5698 5702 5705 5710 5714 5718 5722 5725 5728 5732 5735 5739 5742 5744 5747 5750 5753 5756 5759 5761 5764 5767 5769 5772 5773 5775 5777 5779 5781 5782 5784 5786 5787 5788 5790
5659 5663 5666 5670 5673 5676 5679 5682 5686 5689 5693 5698 5702 5707 5711 5714 5718 5721 5725 5728 5731 5734 5737 5740 5743 5746 5749 5752 5754 5757 5760 5762 5764 5766 5768 5770 5772 5773 5775 5777 5778 5780 5781
5647 5650 5654 5657 5660 5663 5667 5670 5674 5678 5682 5687 5691 5695 5699 5702 5707 5710 5714 5717 5720 5723 5726 5729 5732 5736 5738 5741 5743 5746 5750 5753 5755 5757 5759 5760 5762 5764 5766 5768 5769 5771 5772
5634 5638 5641 5644 5647 5651 5655 5658 5662 5666 5670 5674 5678 5683 5687 5691 5695 5699 5702 5705 5708 5712 5715 5717 5721 5724 5727 5730 5733 5735 5738 5741 5744 5747 5749 5750 5752 5754 5756 5758 5759 5761 5762
5621 5625 5629 5632 5635 5638 5642 5646 5649 5653 5657 5661 5666 5671 5675 5679 5683 5687 5690 5694 5697 5700 5703 5706 5709 5712 5715 5718 5721 5724 5727 5729 5732 5735 5738 5740 5742 5744 5745 5747 5749 5751 5752